Location: �terpigny
(49.8910°N, 2.9249°E)
Time: 10:23:28
(UTC+00:00)

USA 229 - Pass Details

Date: 24 October 2021
Orbit: 946 x 1266 km, 63.4° (Epoch: 25 November)

Event Time Altitude Azimuth Distance (km) Brightness Sun altitude
Rises 19:15:01 0° 226° (SW) 3,648 7.0 -25.6°
Reaches altitude 10° 19:17:30 10° 228° (SW) 2,731 6.2 -26.0°
Maximum altitude 19:23:55 78° 314° (NW) 1,055 3.6 -27.0°
Enters shadow 19:26:59 36° 36° (NE) 1,624 4.4 -27.5°
